GW6027 Weather Reports


time (UTC)temp
C
wind
direction
speed
KPH
gust
KPH
rain 1hr
cm
rain 24hr
cm
rain mn
cm
humidity
%
barometer
mb
20260504130239 22 47 4.8 12.9 0.00 0.00 0.00 43 1013.9
20260504120309 21 49 6.4 11.3 0.00 0.00 0.00 43 1014.3
20260504100141 20 281 6.4 12.9 0.00 0.00 0.00 48 1015.5
20260504081630 16 97 3.2 11.3 0.00 0.00 0.00 53 1015.5
20260504044632 9 298 4.8 8.0 0.00 0.00 0.00 74 1014.8
20260504043030 11 295 1.6 3.2 0.00 0.00 0.00 69 1014.4
20260504041536 10 76 1.6 4.8 0.00 0.00 0.00 70 1014.2
20260504040020 10 67 1.6 9.7 0.00 0.00 0.00 69 1014.0
20260504034623 11 17 4.8 6.4 0.00 0.00 0.00 65 1014.1
20260504033010 11 315 1.6 3.2 0.00 0.00 0.00 66 1014.4
20260504031514 11 316 0.0 1.6 0.00 0.00 0.00 66 1014.4
20260504030109 11 314 0.0 3.2 0.00 0.00 0.00 67 1014.4
20260504024520 12 333 0.0 3.2 0.00 0.00 0.00 65 1014.5
20260504023026 11 333 0.0 4.8 0.00 0.00 0.00 67 1014.3
20260504021510 11 304 4.8 8.0 0.00 0.00 0.00 68 1014.4
20260504020011 12 293 6.4 8.0 0.00 0.00 0.00 66 1014.3
20260504014518 12 297 3.2 4.8 0.00 0.00 0.00 65 1014.2
20260504013127 12 302 1.6 4.8 0.00 0.00 0.00 64 1014.0
20260504011526 13 36 0.0 1.6 0.00 0.00 0.00 59 1013.9
20260504010010 13 126 0.0 1.6 0.00 0.00 0.00 59 1013.8
20260504004534 13 88 1.6 8.0 0.00 0.00 0.00 58 1013.8
20260504003019 13 63 0.0 1.6 0.00 0.00 0.00 59 1013.8
20260504001532 13 288 0.0 3.2 0.00 0.00 0.00 59 1013.8
20260504000024 13 287 4.8 4.8 0.00 0.00 0.00 59 1013.8
20260503234546 14 90 1.6 11.3 0.00 0.00 0.00 57 1013.6
20260503233018 15 45 6.4 8.0 0.00 0.00 0.00 55 1013.5
20260503231523 15 31 6.4 8.0 0.00 0.00 0.00 54 1013.6
20260503230026 16 352 3.2 8.0 0.00 0.00 0.00 51 1013.4
20260503224629 18 53 3.2 4.8 0.00 0.00 0.00 46 1013.3
20260503223109 18 86 6.4 12.9 0.00 0.00 0.00 44 1013.0
20260503221522 18 72 6.4 11.3 0.00 0.00 0.00 44 1012.9
20260503220031 18 145 6.4 11.3 0.00 0.00 0.00 44 1012.9
20260503214536 18 226 9.7 17.7 0.00 0.00 0.00 43 1012.8
20260503213032 19 151 14.5 25.7 0.00 0.00 0.00 43 1012.7
20260503211528 19 174 17.7 25.7 0.00 0.00 0.00 42 1012.8
20260503210019 19 164 20.9 27.4 0.00 0.00 0.00 41 1012.8
20260503204527 19 138 17.7 27.4 0.00 0.00 0.00 41 1012.9
20260503203028 20 164 17.7 30.6 0.00 0.00 0.00 41 1012.9
20260503201526 20 158 14.5 20.9 0.00 0.00 0.00 41 1013.0
20260503200028 20 155 14.5 22.5 0.00 0.00 0.00 40 1013.1
20260503194523 20 144 11.3 17.7 0.00 0.00 0.00 40 1013.1
20260503193050 19 127 4.8 8.0 0.00 0.00 0.00 39 1013.1
20260503191528 20 133 6.4 12.9 0.00 0.00 0.00 38 1013.0
20260503190017 20 144 8.0 14.5 0.00 0.00 0.00 36 1013.0
20260503184519 20 156 9.7 12.9 0.00 0.00 0.00 35 1012.9
20260503183031 21 139 8.0 11.3 0.00 0.00 0.00 33 1012.8
20260503181522 21 123 4.8 8.0 0.00 0.00 0.00 33 1012.7
20260503180024 21 129 3.2 6.4 0.00 0.00 0.00 31 1012.8
20260503174516 22 131 3.2 9.7 0.00 0.00 0.00 31 1012.6
20260503173022 22 141 4.8 8.0 0.00 0.00 0.00 29 1012.6
20260503171526 23 105 4.8 12.9 0.00 0.00 0.00 28 1012.6